Regional Weather Roundup
Issued by NWS

Home | Current Version | Previous Version | Text Only | Print | Product List | Glossary On
Versions: 1 2 3 4 5 6 7 8 9 10 11 12 13 14 15 16 17 18 19 20 21 22 23 24 25 26 27 28 29 30 31 32 33 34 35 36 37 38 39 40 41 42 43 44 45 46 47 48 49 50
000
ASUS46 KSEW 251610
RWRWA

WASHINGTON REGIONAL WEATHER ROUNDUP
NATIONAL WEATHER SERVICE SEATTLE WA
800 AM PST SUN JAN 25 2015

NOTE:"FAIR" INDICATES FEW OR NO CLOUDS BELOW 12,000 FEET WITH NO
SIGNIFICANT WEATHER AND/OR OBSTRUCTIONS TO VISIBILITY.

WAZ505-507>509-251700-
SEATTLE, TACOMA, EVERETT, AND VICINITY

CITY           SKY/WX    TMP DP  RH WIND       PRES   REMARKS
EVERETT        PTCLDY    52  49  89 VRB3      30.19F
BOEING FIELD   MOCLDY    54  49  83 CALM      30.19S
RENTON         FOG       47  47 100 S3        30.19S VSB 1/4
SEATAC AIRPORT CLOUDY    51  50  96 CALM      30.19F FOG
JBLM-MCCHORD   FOG       50  50 100 CALM      30.17F VSB 1/4
PUYALLUP       FOG       46  46 100 CALM      30.18S VSB<1/4
BREMERTON      CLOUDY    52  52 100 CALM      30.20F VSB<1/4
JBLM-FT LEWIS  FOG       46  46 100 S2        30.17F VSB 1/4
TACOMA NARROWS FOG       49  49 100 CALM      30.18F VSB 1
$$

WAZ001-503-506-510-514-515-251700-
NORTH INTERIOR

CITY           SKY/WX    TMP DP  RH WIND       PRES   REMARKS
BELLINGHAM     FOG       52  50  93 CALM      30.16F VSB 3/4
FRIDAY HARBOR  CLOUDY    50  49  96 CALM      30.18F FOG
EASTSOUND      PTCLDY    52  50  93 S9        30.15F
PORT ANGELES   CLOUDY    49  46  90 SW5       30.16F
NAS WHIDBEY    MOCLDY    54  51  90 SE9       30.18F
ARLINGTON      MOCLDY    46  43  87 CALM      30.20F VSB<1/4
BURLINGTON       N/A     50  50 100 CALM      30.19F VSB 3/4
$$

WAZ020-022-039-040-504-511-512-251700-
SOUTHWEST INTERIOR

CITY           SKY/WX    TMP DP  RH WIND       PRES   REMARKS
SHELTON        FOG       51  50  96 E3        30.15S VSB 1/4
OLYMPIA        CLOUDY    49  48  97 SW6       30.18F FOG
CHEHALIS       PTSUNNY   45  45 100 CALM      30.18F FOG
KELSO          CLOUDY    45  41  87 CALM      30.22F VSB<1/4
VANCOUVER      FOG       46  45  96 CALM      30.19F VSB 1/2
SCAPPOOSE, OR  FOG       44  43  96 CALM      30.19F VSB 1/4
PORTLAND, OR   FOG       46  46 100 CALM      30.20S VSB 1/4
$$

WAZ021-516-517-251700-
WASHINGTON COAST

CITY           SKY/WX    TMP DP  RH WIND       PRES   REMARKS
FORKS          CLOUDY    49  49 100 E5        30.13F
HOQUIAM        CLOUDY    53  52  96 NE9       30.14F
ASTORIA, OR    MOCLDY    45  44  97 E5        30.13F FOG
$$

WAZ019-023-024-040-518-519-251700-
CASCADE MOUNTAINS AND COLUMBIA GORGE

CITY           SKY/WX    TMP DP  RH WIND       PRES   REMARKS
TROUTDALE, OR  CLOUDY    47  45  93 VRB6      30.18F FOG
THE DALLES, OR CLOUDY    46  45  96 CALM      30.25R FOG
$$

WAZ026-027-041>044-520-521-251700-
EAST SLOPES

CITY           SKY/WX    TMP DP  RH WIND       PRES   REMARKS
OMAK           FOG       34  33  96 CALM      30.26R VSB 3/4
WENATCHEE      FOG       35  34  96 CALM      30.25S VSB 3/4
ELLENSBURG     FOG       40  37  89 CALM      30.23F VSB 1/4
YAKIMA         FOG       33  32  96 CALM      30.25F VSB<1/4
$$

WAZ028-034-035-251700-
COLUMBIA BASIN

CITY           SKY/WX    TMP DP  RH WIND       PRES   REMARKS
EPHRATA        CLOUDY    33  31  92 NW7       30.24S
MOSES LAKE     FOG       35  35 100 N3        30.26R VSB 1/4
PASCO          CLOUDY    32  32 100 CALM      30.29R FOG
HERMISTON, OR  FOG       32  31  96 CALM      30.23F VSB<1/4
$$

WAZ036>038-251700-
NORTHEAST WASHINGTON

CITY           SKY/WX    TMP DP  RH WIND       PRES   REMARKS
SPOKANE GEIGER MOCLDY    43  41  93 S6        30.22S
SPOKANE FELTS  MOCLDY    39  37  92 CALM      30.24R
FAIRCHILD AFB  CLOUDY    43  43 100 S3        30.21S
COEURDALENE,ID MOCLDY    41  37  87 S8        30.22S
DEER PARK      FOG       36  35  96 CALM      30.23F VSB<1/4
$$

WAZ029>033-251700-
SOUTHEAST WASHINGTON

CITY           SKY/WX    TMP DP  RH WIND       PRES   REMARKS
PULLMAN        PTCLDY    41  37  86 E8        30.27S
LEWISTON, ID   MOCLDY    47  37  68 VRB5      30.27S
WALLA WALLA    FOG       35  34  96 SE5       30.24S VSB 1/2
PENDLETON, OR  MOCLDY    43  37  79 CALM      30.22S
$$


USA.gov is the U.S. government's official web portal to all federal, state and local government web resources and services.